Torna al catalogo

FENGYUN 1C DEB

AttivoSSO
NORAD 35152·DEBRIS·🇨🇳 China

Lanciato May 10, 1999 da Taiyuan Satellite Launch Center

Loading…

Prossimi Passaggi (prossime 24 ore)

TLE

In scadenzaSource: Space-Track

Epoca: Sep 9, 2026, 18:40 UTC

1 35152U 99025DMG 26252.77807625  .00000448  00000-0  43764-3 0  9993
2 35152  99.8201  89.2572 0194268  33.9096 327.4298 13.76833505659220

Traccia FENGYUN 1C DEB in tempo reale con AllMySat

Download on the App Store